Simultaneous Nadir Overpasses (SNOs) Predictions

Prediction of SNOs between TERRA and METOP-C Satellite Orbit:

Table of predicted SNOs for the next 14.0 days since TLE Epoch: 3/27/2021
Index Date (TERRA) Time (TERRA) Lat,Lon (TERRA) SZA (TERRA ) Date (METOP-C) Time (METOP-C) Lat,Lon (METOP-C) SZA (METOP-C ) Distance(km) Time Diff (sec)
1 03/28/2021 11:29:54 81.28, 53.61 80.63 03/28/2021 11:28:51 81.28, 53.48 80.59 2.23 63
2 03/28/2021 12:19:20 -81.30,-138.48 99.34 03/28/2021 12:19:30 -81.29,-138.60 99.36 2.18 10
3 03/31/2021 07:04:06 81.29, 120.25 79.60 03/31/2021 07:03:13 81.29, 120.17 79.56 1.60 53
4 03/31/2021 07:53:33 -81.29, -72.19 100.43 03/31/2021 07:53:53 -81.29, -72.32 100.44 2.24 20
5 04/03/2021 02:38:19 81.28,-173.53 78.51 04/03/2021 02:37:36 81.28,-173.55 78.49 0.45 43
6 04/03/2021 03:27:45 -81.30, -5.57 101.46 04/03/2021 03:28:15 -81.29, -5.68 101.46 1.88 30
7 04/05/2021 22:12:30 81.29,-106.99 77.48 04/05/2021 22:11:57 81.29,-106.91 77.48 1.28 33
8 04/05/2021 23:01:57 -81.28, 60.62 102.54 04/05/2021 23:02:37 -81.29, 60.56 102.52 1.20 40
9 04/08/2021 17:46:42 81.29, -40.49 76.46 04/08/2021 17:46:19 81.29, -40.30 76.47 3.25 23



Historial Predications of SNOs between TERRA and METOP-C
